Tracking 21094 objects as of 14-Aug-2020
HD Live streaming from Space Station
objects crossing your sky now
Track the most recent launched group of Starlink satellites

SATCOM 3 DEB

Track SATCOM 3 DEB now!


NORAD ID: 32984
Int'l Code: 1979-101K
Perigee: 8,231.9 km
Apogee: 35,569.2 km
Inclination: 9.6 °
Period: 788.5 minutes
Semi major axis: 28271 km
RCS: 0.003 m2 (small)
Launch date: December 7, 1979
Source: United States (US)
Launch site: AIR FORCE EASTERN TEST RANGE (AFETR)

Note: This is SATELLITE DEBRIS
aabbcc
Your satellite tracking list
Your tracking list is empty




NASA's NSSDC Master Catalog

Two Line Element Set (TLE):
1 32984U 79101K   20223.45056382 -.00000105  00000-0  00000+0 0  9992
2 32984   9.5847 294.1722 4834771  60.5878 358.4944  1.82632927 82575
Source of the keplerian elements: AFSPC